Regional Weather Roundup
Issued by NWS

Home | Current Version | Previous Version | Text Only | Print | Product List | Glossary Off
Versions: 1 2 3 4 5 6 7 8 9 10 11 12 13 14 15 16 17 18 19 20 21 22 23 24 25 26 27 28 29 30 31 32 33 34 35 36 37 38 39 40 41 42 43 44 45 46 47 48 49 50

000
ASUS43 KMPX 230910
RWRMN
WEATHER ROUNDUP FOR MINNESOTA
NATIONAL WEATHER SERVICE TWIN CITIES/CHANHASSEN MN
300 AM CST MON JAN 23 2017


NOTE: "FAIR" INDICATES FEW OR NO CLOUDS BELOW 12,000 FEET WITH NO
SIGNIFICANT WEATHER AND/OR OBSTRUCTIONS TO VISIBILITY. N/A MEANS
CURRENT SKY AND/OR WEATHER CONDITIONS ARE NOT AVAILABLE.

MNZ060>063-068>070-231000-
   Twin Cities Metro

CITY           SKY/WX    TMP DP  RH WIND       PRES   REMARKS
TWIN CITIES    DRIZZLE   34  31  88 W6        29.82R FOG     WCI  29
ST PAUL        CLOUDY    34  34 100 W6        29.83R FOG     WCI  29
CRYSTAL        CLOUDY    34  30  85 W6        29.80R FOG     WCI  29
BLAINE         CLOUDY    36  36 100 W6        29.81R FOG
LAKEVILLE      CLOUDY    30  30 100 W8        29.81S FOG     WCI  23
EDEN PRAIRIE   CLOUDY    33  32  96 W3        29.80S FOG
SOUTH ST PAUL  CLOUDY    34  34  99 CALM      29.82R FOG
LAKE ELMO      CLOUDY    34  34 100 W6        29.82R FOG     WCI  29
$$
MNZ001>005-007-008-013>017-022>024-027-028-231000-
   Northwest Minnesota

CITY           SKY/WX    TMP DP  RH WIND       PRES   REMARKS
BEMIDJI        CLOUDY    31  30  96 W7        29.75S WCI  24
HALLOCK        CLOUDY    32  30  93 SW5       29.75S WCI  27
ROSEAU         FOG       34  28  80 W3        29.74S VSB 3/4
WARROAD        LGT SNOW  32  28  86 SW5       29.74S WCI  27
THIEF RVR FALL CLOUDY    31  29  92 W8        29.77S WCI  23
CROOKSTON      CLOUDY    32  30  93 W7        29.78F WCI  26
FOSSTON        CLOUDY    28  28 100 SW7       29.77S FOG     WCI  21
DETROIT LAKES  CLOUDY    32  30  93 W3        29.79S FOG
MOORHEAD       CLOUDY    30  28  93 W3        29.81S
PARK RAPIDS    CLOUDY    32  27  81 NW9       29.76R WCI  24
MAHNOMEN       CLOUDY    30  29  96 W8        29.77S WCI  22
$$
MNZ006-009>011-018-025>026-231000-
   North Central Minnesota

CITY           SKY/WX    TMP DP  RH WIND       PRES   REMARKS
BAUDETTE       CLOUDY    33  32  96 W3        29.72S
FLAG ISLAND    RAIN      32  32 100 CALM      29.72S
INTL FALLS     CLOUDY    34  32  92 W5        29.72F FOG     WCI  30
WASKISH        CLOUDY    32  32 100 W6        29.75S FOG     WCI  26
BIG FORK       CLOUDY    34  34 100 CALM      29.74S
LONGVILLE      CLOUDY    32  32 100 CALM      29.75S FOG
GRAND RAPIDS   FOG       34  33  96 W3        29.76S VSB 3/4
CRANE LAKE     CLOUDY    30  30 100 CALM      29.74S FOG
ORR            CLOUDY    34  30  86 CALM      29.70S FOG
COOK           CLOUDY    34  34 100 CALM      29.74R FOG
WALKER         CLOUDY    31  31  97 W3        29.76R
$$
MNZ012-019>021-037-231000-
   Northeast Minnesota

CITY           SKY/WX    TMP DP  RH WIND       PRES   REMARKS
DULUTH         FOG       35  35 100 CALM      29.74R VSB 1/2
ELY            CLOUDY    32  32 100 CALM      29.72R
HIBBING        CLOUDY    32  32 100 CALM      29.73S
EVELETH        FOG       34  33  98 CALM      29.75R VSB 1
DULUTH HARBOR  CLOUDY    36  34  93 CALM      29.78R
TWO HARBORS    CLOUDY    37  34  87 CALM      29.73R
SILVER BAY     CLOUDY    36  36 100 CALM      29.73R
GRAND MARAIS     N/A     35  33  92 CALM      29.75R
G MARAIS ARPRT CLOUDY    30  28  93 CALM      29.71R
$$
MNZ029>031-032-039>041-046>048-054>057-064-231000-
   West Central Minnesota

CITY           SKY/WX    TMP DP  RH WIND       PRES   REMARKS
FERGUS FALLS   CLOUDY    30  30 100 W5        29.85R WCI  25
WHEATON        CLOUDY    39  36  87 W9        29.85R
MORRIS         CLOUDY    32  30  93 NW7       29.81R WCI  26
ALEXANDRIA     CLOUDY    31  29  92 NW8       29.79R WCI  23
ELBOW LAKE     CLOUDY    31  30  97 NW5       29.81S FOG     WCI  26
WADENA         CLOUDY    30  28  93 W3        29.77S FOG
GLENWOOD       CLOUDY    30  28  93 NW9       29.80S WCI  22
APPLETON       CLOUDY    36  30  80 NW10      29.83S
ORTONVILLE     CLOUDY    34  28  80 CALM      29.84R
MADISON        CLOUDY    36  34  93 NW9       29.84S
WILLMAR        CLOUDY    34  30  86 CALM      29.83R
$$
MNZ033>034-036-042>043-049>051-058-059-231000-
   Central Minnesota

CITY           SKY/WX    TMP DP  RH WIND       PRES   REMARKS
ST CLOUD       CLOUDY    32  32 100 NW5       29.80R FOG     WCI  27
SAUK CENTRE    CLOUDY    31  29  94 W7        29.80R WCI  24
PAYNESVILLE    CLOUDY    32  32 100 W6        29.81R WCI  26
AITKIN         CLOUDY    36  32  87 W3        29.76R FOG
PINE RIVER     CLOUDY    32  32 100 CALM      29.80S FOG
BRAINERD       CLOUDY    32  32 100 W3        29.78R FOG
STAPLES        CLOUDY    30  30 100 W6        29.78S FOG     WCI  24
LONG PRAIRIE   CLOUDY    30  30 100 CALM      29.79R FOG
LITTLE FALLS   CLOUDY    32  32 100 W3        29.80R FOG
LITCHFIELD     CLOUDY    34  32  93 W3        29.82R FOG
BUFFALO        CLOUDY    32  32  97 W3        29.81F FOG
MAPLE LAKE     CLOUDY    33  33  99 CALM      29.82S FOG
HUTCHINSON     CLOUDY    33  33  99 W7        29.83R FOG     WCI  27
$$
MNZ037-044-045-052-053-231000-
   East Central Minnesota

CITY           SKY/WX    TMP DP  RH WIND       PRES   REMARKS
PRINCETON      CLOUDY    34  34 100 CALM      29.81R FOG
MORA           CLOUDY    34  32  93 CALM      29.80R FOG
CAMBRIDGE      MIX PCPN  36  36 100 W3        29.78S
RUSH CITY      CLOUDY    34  32  93 W5        29.80R FOG     WCI  30
MOOSE LAKE     CLOUDY    34  34 100 CALM      29.75R
HINCKLEY       CLOUDY    34  34 100 W3        29.78R FOG
CLOQUET        CLOUDY    36  34  93 W3        29.75R
MCGREGOR       CLOUDY    34  34 100 CALM      29.76R
$$
MNZ071>073-080-081-089-090-097-098-231000-
   Southwest Minnesota

CITY           SKY/WX    TMP DP  RH WIND       PRES   REMARKS
MONTEVIDEO     CLOUDY    34  34 100 N3        29.85R
GRANITE FALLS  CLOUDY    34  32  92 W8        29.85R WCI  27
CANBY          CLOUDY    34  31  88 W10       29.85S WCI  26
MARSHALL       CLOUDY    33  29  85 NW10      29.85R WCI  25
REDWOOD FALLS  CLOUDY    33  29  85 NW7       29.83R WCI  27
OLIVIA         CLOUDY    34  32  93 W6        29.82S WCI  29
PIPESTONE      CLOUDY    32  28  86 N10       29.83R WCI  24
WINDOM         CLOUDY    34  28  80 NW8       29.83S WCI  27
WORTHINGTON    CLOUDY    32  28  85 NW6       29.84R WCI  26
JACKSON        CLOUDY    32  28  86 NW6       29.84S WCI  26
TRACY          CLOUDY    33  31  92 NW10      29.84R WCI  25
SLAYTON        CLOUDY    32  29  90 NW12      29.84R WCI  23
$$
MNZ065>067-074>077-082>085-091>093-231000-
   South Central Minnesota

CITY           SKY/WX    TMP DP  RH WIND       PRES   REMARKS
MANKATO        CLOUDY    32  30  92 W3        29.83S
NEW ULM        CLOUDY    32  30  93 W6        29.83S WCI  26
ST JAMES       CLOUDY    32  30  93 W7        29.85S WCI  26
FAIRMONT       CLOUDY    32  29  88 NW8       29.85R WCI  25
GLENCOE        CLOUDY    33  34 100 W3        29.81S FOG
OWATONNA       CLOUDY    32  30  93 W5        29.82S FOG     WCI  27
WASECA         CLOUDY    32  32 100 W6        29.83F FOG     WCI  26
ALBERT LEA     CLOUDY    32  32 100 W5        29.82S FOG     WCI  27
$$
MNZ078>079-086>088-094>096-231000-
   Southeast Minnesota

CITY           SKY/WX    TMP DP  RH WIND       PRES   REMARKS
ROCHESTER      CLOUDY    31  31 100 W9        29.81R FOG     WCI  23
RED WING       CLOUDY    34  32  93 W5        29.81S FOG     WCI  30
STANTON        CLOUDY    33  32  94 CALM      29.81S FOG
DODGE CENTER   CLOUDY    30  30 100 CALM      29.81S FOG
WINONA         CLOUDY    36  34  93 W5        29.82R
AUSTIN         CLOUDY    32  30  93 NW6       29.82S FOG     WCI  26
PRESTON        CLOUDY    32  31  96 NW10      29.80S FOG     WCI  23
$$
ABBREVIATIONS USED IN REMARKS
   TC - TEMPERATURES IN CELSIUS
  WCI - WIND CHILL INDEX
   HX - HEAT INDEX
  VSB - VISIBILITY
$$



USA.gov is the U.S. government's official web portal to all federal, state and local government web resources and services.